ARIANE 42P DEB, 47107

Orbit data source: Space-Track

ARIANE 42P DEB, 47107 is space debris in LEO originally from a launch on Mon, 10 Aug 1992 UTC launched from the French Guiana (FRGUI). Debris objects in space refer to the collection of defunct objects orbiting the Earth. Examples of debris include non-operational satellites, rocket bodies, and fragments generated from explosions, collisions, or faulty payload assembly.

Loading next visibility...
Identifier
47107, 1992-052N
Orbit
LEO
Country
Flag of FRFR
Related business
Manufacturer
ArianeGroup
Mission
Spacecraft
Bus & Motor
Unknown
Mass
Unknown
Launch date (UTC)
1992-08-10 (33 years ago)
Launch vehicle
Unknown
Launch site
French Guiana (FRGUI)
Object type
Payload
Rocket body
Debris
Shape & HBR
Unknown shape, 0.1 m
Radar Cross Section
Small (<0.1 m²)

Expand to show TLE details & history
Last TLE update: 5 days ago

TLE from 5 days ago
0 ARIANE 42P DEB
1 47107U 92052N   26031.88975903  .00000909  00000-0  39557-2 0  9997
2 47107  66.0654 206.0710 0086113   9.0219 351.2322 12.84315408289322
Epoch: 2026-01-31T21:21Z
TLE epoch observation values (Epoch: 2026-01-31T21:21:15.180Z)
Latitude
0.00003°
Longitude
114.65049°
Altitude
1,260.538 km
Speed
7.256 km/s
True Right ascension
13h 44m 17s
True Declination
0° 00' 00"
Sunlit
Object was in daylight at epoch
Visualization orbit readout
Latitude
Unknown
Longitude
Unknown
Altitude
Unknown
Speed
Unknown
Apparent Right ascension
Unknown
Apparent Declination
Unknown
Sunlit
N/A
Visualization observer readout
Local Sidereal Time
10:31:41
Azimuth
Unknown
Elevation
Unknown
Doppler factor
Unknown
Orbital elements
Apogee altitude
1,389.04 km
Perigee altitude
1,256.411 km
Semi-major axis
7,700.862 km
Eccentricity
0.00861
Inclination
66.0654°
RAAN
206.071°
Arg. of periapsis
9.0219°
True anomaly
351.08017°
Mean anomaly
351.2322°
Eccentric anomaly
351.15635°
Mean motion
3.21169 °/min
Orbital period
112.09 mins
BSTAR
0.0039557
Loading maneuver chart data...
Computing Atmospheric mass density...
Loading historical data...
Loading historical data...
Loading historical data...
Loading historical data...
Loading historical data...
Loading historical data...
Loading historical data...

Documentation

Showing up to 5 results
|